Regional Weather Roundup
Issued by NWS

Home | Current Version | Previous Version | Graphics & Text | Print | Product List | Glossary On
Versions: 1 2 3 4 5 6 7 8 9 10 11 12 13 14 15 16 17 18 19 20 21 22 23 24 25 26 27 28 29 30 31 32 33 34 35 36 37 38 39 40 41 42 43 44 45 46 47 48 49 50
718
ASUS43 KIND 261209
RWRIN

WEATHER ROUNDUP FOR INDIANA
NATIONAL WEATHER SERVICE INDIANAPOLIS IN
800 AM EDT FRI AUG 26 2016

NOTE: "FAIR" INDICATES FEW OR NO CLOUDS BELOW 12,000 FEET WITH NO
SIGNIFICANT WEATHER AND/OR OBSTRUCTIONS TO VISIBILITY.

* - STATION DOES NOT REPORT WEATHER SUCH AS PRECIPITATION OR FOG.

+ - STATION NOT QUALITY CONTROLLED BY THE NATIONAL WEATHER SERVICE.
    USE DATA WITH CAUTION...ESPECIALLY DEWPOINT AND RELATIVE
    HUMIDITY OBSERVATIONS.

INZ001>003-010>013-019-020-261300-
NORTHWEST INDIANA

CITY           SKY/WX    TMP DP  RH WIND       PRES   REMARKS
GARY /AIRPORT/ MOCLDY    70  68  94 N3        30.14R
KNOX *+        CLOUDY    64  57  77 CALM      30.14S
LA PORTE +     CLOUDY   N/A N/A N/A CALM      30.15S
MICHIGAN CITY+ MOCLDY    63  63 100 CALM      30.15R FOG
MONTICELLO +   LGT RAIN  69  66  88 NE3       30.13F
6HR MIN TEMP:  67; 6HR MAX TEMP:  70;

RENSSELAER +   CLOUDY    66  66 100 CALM      30.15R FOG
VALPARAISO     CLOUDY    68  65  90 CALM      30.15R
6HR MIN TEMP:  65; 6HR MAX TEMP:  70;


$$

LMZ046-743>745-261300-
SOUTHERN LAKE MICHIGAN

STATION/POSITION TIME  TEMP    WIND        PRES    WAVE
                       AIR SEA DIR/SP/G            HT
                 (UTC) (F)     (DEG/KT/KT) (MB)    (FT)
BURNS HARBOR     1104   73      10/  8/  9 1020.7R
MICHIGAN CITY    1100   73     330/  8/  9   N/A
5NW MICH CITY    1100   74 74  350/  6/  8   N/A     1

$$

INZ004-005-014>016-021>024-261300-
NORTH CENTRAL INDIANA

CITY           SKY/WX    TMP DP  RH WIND       PRES   REMARKS
ELKHART        CLOUDY    64  63  94 CALM      30.15R
GOSHEN         FOG       66  64  93 CALM      30.16R VSB 1
6HR MIN TEMP:  63; 6HR MAX TEMP:  68;

LOGANSPORT +   RAIN      68  68 100 E7        30.13F VSB 1/2
PERU/GRISSOM   TSTM      70  70 100 CALM      30.14R FOG
6HR MIN TEMP:  69; 6HR MAX TEMP:  71;

ROCHESTER +    LGT RAIN  70  70 100 CALM      30.15S
SOUTH BEND     MOCLDY    66  65  96 CALM      30.15R
6HR MIN TEMP:  64; 6HR MAX TEMP:  67;

WARSAW +       CLOUDY    66  66 100 CALM      30.15R FOG

$$

INZ006>009-017-018-025>027-261300-
NORTHEAST INDIANA

CITY           SKY/WX    TMP DP  RH WIND       PRES   REMARKS
ANGOLA *+      SUNNY     63  54  72 CALM      30.14R
AUBURN +       PTSUNNY   66  64  94 CALM      30.16R FOG
FORT WAYNE     MOCLDY    68  66  93 CALM      30.15R FOG
6HR MIN TEMP:  67; 6HR MAX TEMP:  72;

HUNTINGTON +   FOG      N/A N/A N/A CALM      30.15R VSB 1/4

$$

INZ028-029-035-036-043>045-051>053-261300-
WEST CENTRAL INDIANA

CITY           SKY/WX    TMP DP  RH WIND       PRES   REMARKS
CRAWFORDSVL +  CLOUDY    67  67 100 E5        30.12F
6HR MIN TEMP:  67; 6HR MAX TEMP:  71; 6HR PCP:  0.01;

GREENCASTLE +  MOCLDY    72  72 100 N10G23    30.16R FOG
LAFAYETTE      CLOUDY    71  71 100 E6        30.12S FOG
6HR MIN TEMP:  68; 6HR MAX TEMP:  71; 6HR PCP:  0.10;

TERRE HAUTE    MOCLDY    74  72  93 N6        30.13R
6HR MIN TEMP:  71; 6HR MAX TEMP:  75;


$$

INZ030>032-037>040-046>048-054>057-064-065-261300-
CENTRAL INDIANA

CITY           SKY/WX    TMP DP  RH WIND       PRES   REMARKS
COLUMBUS       PTCLDY    72  72 100 CALM      30.14R FOG
INDIANAPOLIS   MOCLDY    76  72  87 E5        30.13R
6HR MIN TEMP:  75; 6HR MAX TEMP:  77;

-EAGLE CREEK   CLOUDY    75  73  93 SE3       30.13R
6HR MIN TEMP:  74; 6HR MAX TEMP:  77; 6HR PCP:  0.28;

MARION +       MOCLDY    69  69 100 CALM      30.16R FOG
MT COMFORT *+  PTCLDY    72  70  94 CALM      30.14R
SHELBYVILLE    FOG       73  70  90 CALM      30.13R VSB 1/4
6HR MIN TEMP:  71; 6HR MAX TEMP:  75;

ZIONSVILLE +   MOCLDY    71  70  99 N5        30.16R FOG
6HR MIN TEMP:  67; 6HR MAX TEMP:  73;


$$

INZ033-034-041-042-049-050-058-059-261300-
EAST CENTRAL INDIANA

CITY           SKY/WX    TMP DP  RH WIND       PRES   REMARKS
MUNCIE         PTCLDY    71  69  93 CALM      30.15R
6HR MIN TEMP:  70; 6HR MAX TEMP:  74;


$$

INZ060-061-067>069-081>083-085>088-261300-
SOUTHWEST INDIANA

CITY           SKY/WX    TMP DP  RH WIND       PRES   REMARKS
EVANSVILLE     PTCLDY    74  71  91 CALM      30.12R
6HR MIN TEMP:  71; 6HR MAX TEMP:  75;

HUNTINGBURG *+ CLEAR     72  70  94 CALM      30.12S
6HR MIN TEMP:  72; 6HR MAX TEMP:  73;

WASHINGTON +   CLEAR     71  71 100 MISG      30.12R FOG
6HR MIN TEMP:  69; 6HR MAX TEMP:  74;


$$

INZ062-063-066-070>080-084-089>092-261300-
SOUTH CENTRAL AND SOUTHEAST INDIANA

CITY           SKY/WX    TMP DP  RH WIND       PRES   REMARKS
BLOOMINGTON    CLOUDY    71  69  93 CALM      30.13R
6HR MIN TEMP:  69; 6HR MAX TEMP:  74;

MADISON *+       N/A     72  70  94 CALM      30.15R

$$





USA.gov is the U.S. government's official web portal to all federal, state and local government web resources and services.